Location: Teplice
(50.6330°N, 13.8330°E)
Time: 00:36:19
(UTC+02:00)

ISS - Visible Passes

Search period start: 20 September 2018 00:00
Search period end: 30 September 2018 00:00
Orbit: 402 x 408 km, 51.6° (Epoch: 20 September)

Date Brightness Start Highest point End Pass type
(mag) Time Alt. Az. Time Alt. Az. Time Alt. Az.
22 Sep -1.9 20:27:09 10° S 20:28:34 16° SSE 20:28:34 16° SSE visible
23 Sep -1.6 19:36:47 10° SSE 19:37:40 11° SE 19:38:31 10° ESE visible
23 Sep -2.1 21:10:21 10° SW 21:11:54 24° SW 21:11:54 24° SW visible
24 Sep -2.9 20:18:40 10° SSW 20:21:37 31° SSE 20:22:20 28° ESE visible
24 Sep -0.8 21:54:37 10° WSW 21:55:01 13° WSW 21:55:01 13° WSW visible
25 Sep -2.2 19:27:14 10° SSW 19:29:45 20° SE 19:32:16 10° E visible
25 Sep -3.4 21:02:36 10° WSW 21:05:17 54° SW 21:05:17 54° SW visible
26 Sep -3.6 20:10:40 10° SW 20:13:53 53° SSE 20:15:26 26° E visible
26 Sep -1.2 21:47:04 10° W 21:48:06 19° W 21:48:06 19° W visible
27 Sep -3.0 19:18:52 10° SW 19:21:55 36° SSE 19:24:58 10° E visible
27 Sep -3.8 20:54:58 10° W 20:58:09 79° NW 20:58:09 79° NW visible
28 Sep -3.9 20:02:54 10° WSW 20:06:12 82° SSE 20:08:07 23° ENE visible
28 Sep -1.3 21:39:28 10° W 21:40:47 22° WNW 21:40:47 22° WNW visible
29 Sep -3.8 20:47:21 10° W 20:50:39 72° N 20:50:42 72° N visible
